This is the latest recevied weather packets stored in our database for station/object OE2ATN. If no packets are shown the sender has not sent any weather packets the latest 10 day(s).
| Time | Temp. | Humidity | Pressure | Rain* | Wind** | Luminosity | Snow |
|---|---|---|---|---|---|---|---|
| 1777784705 | 5.56° C | 67% | 1026.7 hPa | 0 mm | - | - | - |
| 1777784405 | 5° C | 66% | 1026.8 hPa | 0 mm | - | - | - |
| 1777784105 | 5° C | 67% | 1026.8 hPa | 0 mm | - | - | - |
| 1777783805 | 5° C | 68% | 1026.7 hPa | 0 mm | - | - | - |
| 1777783504 | 5° C | 69% | 1026.7 hPa | 0 mm | - | - | - |
| 1777783205 | 5° C | 69% | 1026.7 hPa | 0 mm | - | - | - |
| 1777782906 | 5° C | 68% | 1026.8 hPa | 0 mm | - | - | - |
| 1777782605 | 5° C | 67% | 1026.7 hPa | 0 mm | - | - | - |
| 1777782305 | 5° C | 70% | 1026.7 hPa | 0 mm | - | - | - |
| 1777782005 | 5° C | 72% | 1026.6 hPa | 0 mm | - | - | - |
| 1777781705 | 5° C | 70% | 1026.7 hPa | 0 mm | - | - | - |
| 1777781404 | 5° C | 70% | 1026.7 hPa | 0 mm | - | - | - |
| 1777781104 | 5° C | 72% | 1026.7 hPa | 0 mm | - | - | - |
| 1777780804 | 5° C | 73% | 1026.6 hPa | 0 mm | - | - | - |
| 1777780504 | 5° C | 73% | 1026.5 hPa | 0 mm | - | - | - |
| 1777780204 | 5° C | 72% | 1026.5 hPa | 0 mm | - | - | - |
| 1777779904 | 5° C | 72% | 1026.5 hPa | 0 mm | - | - | - |
| 1777779605 | 5° C | 72% | 1026.5 hPa | 0 mm | - | - | - |
| 1777779305 | 5° C | 71% | 1026.5 hPa | 0 mm | - | - | - |
| 1777779007 | 5° C | 70% | 1026.5 hPa | 0 mm | - | - | - |
| 1777778707 | 5° C | 72% | 1026.5 hPa | 0 mm | - | - | - |
| 1777778407 | 5° C | 73% | 1026.3 hPa | 0 mm | - | - | - |
| 1777778106 | 5.56° C | 74% | 1026.5 hPa | 0 mm | - | - | - |
| 1777777805 | 5.56° C | 74% | 1026.5 hPa | 0 mm | - | - | - |
| 1777777505 | 5.56° C | 74% | 1026.3 hPa | 0 mm | - | - | - |
* Rain latest hour (hover to see other rain measurements)
** Current wind speed in m/s (hover to see current wind gust speed)